Time,TemperatureF,DewpointF,PressureIn,WindDirection,WindDirectionDegrees,WindSpeedMPH,WindSpeedGustMPH,Humidity,HourlyPrecipIn,Conditions,Clouds,dailyrainin,SoftwareType,DateUTC
2013-11-21 00:01:00,41.0,33.1,30.45,East,90,0.0,3.0,73,0.00,,,0.00,meteohub,2013-11-21 05:01:00,
2013-11-21 00:05:00,41.0,33.1,30.45,NE,45,0.0,3.0,73,0.00,,,0.00,meteohub,2013-11-21 05:05:00,
2013-11-21 00:10:00,41.0,33.4,30.45,ENE,68,0.0,3.0,74,0.00,,,0.00,meteohub,2013-11-21 05:10:00,
2013-11-21 00:15:00,41.0,33.4,30.45,North,0,0.0,3.0,74,0.00,,,0.00,meteohub,2013-11-21 05:15:00,
2013-11-21 00:20:00,40.6,33.1,30.45,North,0,0.0,3.0,74,0.00,,,0.00,meteohub,2013-11-21 05:20:00,
2013-11-21 00:25:00,40.5,33.1,30.45,North,0,0.0,3.0,75,0.00,,,0.00,meteohub,2013-11-21 05:25:00,
2013-11-21 00:30:00,40.5,33.1,30.45,NNW,338,3.0,3.0,75,0.00,,,0.00,meteohub,2013-11-21 05:30:00,
2013-11-21 00:35:00,40.6,33.3,30.45,NNE,22,0.0,3.0,75,0.00,,,0.00,meteohub,2013-11-21 05:35:00,
2013-11-21 00:40:00,40.6,33.6,30.45,NNE,22,0.0,3.0,76,0.00,,,0.00,meteohub,2013-11-21 05:40:00,
2013-11-21 00:45:00,40.8,33.8,30.45,NE,45,0.0,3.0,76,0.00,,,0.00,meteohub,2013-11-21 05:45:00,
2013-11-21 00:50:00,41.0,34.0,30.45,North,0,3.0,4.0,76,0.00,,,0.00,meteohub,2013-11-21 05:50:00,
2013-11-21 00:55:00,41.2,33.8,30.45,North,0,2.0,4.0,75,0.00,,,0.00,meteohub,2013-11-21 05:55:00,
2013-11-21 00:57:00,41.2,33.8,30.45,North,0,0.0,4.0,75,0.00,,,0.00,meteohub,2013-11-21 05:57:00,
2013-11-21 01:02:00,41.2,33.8,30.45,NE,45,4.0,4.0,75,0.00,,,0.00,meteohub,2013-11-21 06:02:00,
2013-11-21 01:07:00,41.2,33.8,30.45,NE,45,0.0,4.0,75,0.00,,,0.00,meteohub,2013-11-21 06:07:00,
2013-11-21 01:12:00,41.4,34.0,30.45,North,0,0.0,4.0,75,0.00,,,0.00,meteohub,2013-11-21 06:12:00,
2013-11-21 01:17:00,41.4,33.6,30.45,NNW,338,5.0,5.0,74,0.00,,,0.00,meteohub,2013-11-21 06:17:00,
2013-11-21 01:22:00,41.5,33.8,30.45,NNE,22,4.0,5.0,74,0.00,,,0.00,meteohub,2013-11-21 06:22:00,
2013-11-21 01:27:00,41.5,33.6,30.45,North,0,0.0,5.0,73,0.00,,,0.00,meteohub,2013-11-21 06:27:00,
2013-11-21 01:32:00,41.4,33.4,30.45,NNE,22,2.0,5.0,73,0.00,,,0.00,meteohub,2013-11-21 06:32:00,
2013-11-21 01:37:00,41.4,33.4,30.45,NNE,22,0.0,4.0,73,0.00,,,0.00,meteohub,2013-11-21 06:37:00,
2013-11-21 01:42:00,41.2,33.3,30.45,East,90,0.0,4.0,73,0.00,,,0.00,meteohub,2013-11-21 06:42:00,
2013-11-21 01:47:00,41.2,33.3,30.45,North,0,0.0,4.0,73,0.00,,,0.00,meteohub,2013-11-21 06:47:00,
2013-11-21 01:52:00,41.0,33.4,30.45,North,0,0.0,4.0,74,0.00,,,0.00,meteohub,2013-11-21 06:52:00,
2013-11-21 01:57:00,41.0,33.4,30.45,NE,45,4.0,4.0,74,0.00,,,0.00,meteohub,2013-11-21 06:57:00,
2013-11-21 02:02:00,41.0,33.4,30.45,ENE,68,3.0,4.0,74,0.00,,,0.00,meteohub,2013-11-21 07:02:00,
2013-11-21 02:07:00,41.2,33.4,30.45,ESE,112,3.0,4.0,74,0.00,,,0.00,meteohub,2013-11-21 07:07:00,
2013-11-21 02:12:00,41.4,33.6,30.45,ENE,68,3.0,4.0,74,0.00,,,0.00,meteohub,2013-11-21 07:12:00,
2013-11-21 02:17:00,41.5,33.8,30.45,NE,45,0.0,4.0,74,0.00,,,0.00,meteohub,2013-11-21 07:17:00,
2013-11-21 02:22:00,41.5,33.8,30.45,North,0,3.0,6.0,74,0.00,,,0.00,meteohub,2013-11-21 07:22:00,
2013-11-21 02:27:00,41.5,33.6,30.45,NNW,338,0.0,6.0,73,0.00,,,0.00,meteohub,2013-11-21 07:27:00,
2013-11-21 02:32:00,41.5,33.6,30.45,NW,315,3.0,6.0,73,0.00,,,0.00,meteohub,2013-11-21 07:32:00,
2013-11-21 02:37:00,41.5,33.6,30.45,ESE,112,0.0,4.0,73,0.00,,,0.00,meteohub,2013-11-21 07:37:00,
2013-11-21 02:42:00,41.7,33.6,30.45,NNW,338,3.0,5.0,73,0.00,,,0.00,meteohub,2013-11-21 07:42:00,
2013-11-21 02:47:00,41.7,33.4,30.45,NNE,22,0.0,5.0,72,0.00,,,0.00,meteohub,2013-11-21 07:47:00,
2013-11-21 02:52:00,41.7,33.4,30.45,SW,225,6.0,6.0,72,0.00,,,0.00,meteohub,2013-11-21 07:52:00,
2013-11-21 02:57:00,41.7,33.4,30.45,North,0,0.0,6.0,72,0.00,,,0.00,meteohub,2013-11-21 07:57:00,
2013-11-21 03:02:00,41.7,33.1,30.45,North,0,3.0,6.0,71,0.00,,,0.00,meteohub,2013-11-21 08:02:00,
2013-11-21 03:07:00,41.9,33.3,30.45,NNE,22,0.0,6.0,71,0.00,,,0.00,meteohub,2013-11-21 08:07:00,
2013-11-21 03:12:00,41.9,33.3,30.45,NNE,22,4.0,4.0,71,0.00,,,0.00,meteohub,2013-11-21 08:12:00,
2013-11-21 03:18:00,41.7,33.1,30.45,NNE,22,5.0,7.0,71,0.00,,,0.00,meteohub,2013-11-21 08:18:00,
2013-11-21 03:23:00,41.7,32.7,30.45,ESE,112,3.0,7.0,70,0.00,,,0.00,meteohub,2013-11-21 08:23:00,
2013-11-21 03:28:00,41.7,32.7,30.45,NNW,338,6.0,6.0,70,0.00,,,0.00,meteohub,2013-11-21 08:28:00,
2013-11-21 03:33:00,41.7,32.7,30.45,NE,45,2.0,6.0,70,0.00,,,0.00,meteohub,2013-11-21 08:33:00,
2013-11-21 03:38:00,41.5,32.5,30.45,North,0,3.0,6.0,70,0.00,,,0.00,meteohub,2013-11-21 08:38:00,
2013-11-21 03:43:00,41.5,32.5,30.45,ENE,68,3.0,6.0,70,0.00,,,0.00,meteohub,2013-11-21 08:43:00,
2013-11-21 03:48:00,41.5,32.5,30.45,NNE,22,3.0,5.0,70,0.00,,,0.00,meteohub,2013-11-21 08:48:00,
2013-11-21 03:53:00,41.5,32.5,30.45,NNE,22,3.0,5.0,70,0.00,,,0.00,meteohub,2013-11-21 08:53:00,
2013-11-21 03:58:00,41.4,32.4,30.45,NNE,22,0.0,4.0,70,0.00,,,0.00,meteohub,2013-11-21 08:58:00,
2013-11-21 04:03:00,41.2,32.2,30.45,SSE,158,3.0,4.0,70,0.00,,,0.00,meteohub,2013-11-21 09:03:00,
2013-11-21 04:08:00,41.2,32.2,30.45,NE,45,3.0,5.0,70,0.00,,,0.00,meteohub,2013-11-21 09:08:00,
2013-11-21 04:13:00,41.2,32.5,30.45,NE,45,0.0,5.0,71,0.00,,,0.00,meteohub,2013-11-21 09:13:00,
2013-11-21 04:18:00,41.2,32.5,30.45,ENE,68,3.0,5.0,71,0.00,,,0.00,meteohub,2013-11-21 09:18:00,
2013-11-21 04:23:00,41.2,32.5,30.45,NNE,22,0.0,4.0,71,0.00,,,0.00,meteohub,2013-11-21 09:23:00,
2013-11-21 04:28:00,41.2,32.5,30.45,NNE,22,0.0,4.0,71,0.00,,,0.00,meteohub,2013-11-21 09:28:00,
2013-11-21 04:33:00,41.2,32.5,30.45,NNE,22,0.0,4.0,71,0.00,,,0.00,meteohub,2013-11-21 09:33:00,
2013-11-21 04:38:00,41.2,32.5,30.45,NE,45,4.0,4.0,71,0.00,,,0.00,meteohub,2013-11-21 09:38:00,
2013-11-21 04:43:00,41.2,32.5,30.45,ENE,68,4.0,5.0,71,0.00,,,0.00,meteohub,2013-11-21 09:43:00,
2013-11-21 04:48:00,41.2,32.9,30.45,NNE,22,0.0,5.0,72,0.00,,,0.00,meteohub,2013-11-21 09:48:00,
2013-11-21 04:53:00,41.2,32.9,30.45,NNW,338,5.0,5.0,72,0.00,,,0.00,meteohub,2013-11-21 09:53:00,
2013-11-21 04:58:00,41.2,32.5,30.45,NNE,22,3.0,5.0,71,0.00,,,0.00,meteohub,2013-11-21 09:58:00,
2013-11-21 05:03:00,41.2,32.5,30.45,NE,45,3.0,5.0,71,0.00,,,0.00,meteohub,2013-11-21 10:03:00,
2013-11-21 05:08:00,41.4,32.7,30.45,North,0,2.0,5.0,71,0.00,,,0.00,meteohub,2013-11-21 10:08:00,
2013-11-21 05:13:00,41.4,32.7,30.45,NNE,22,0.0,4.0,71,0.00,,,0.00,meteohub,2013-11-21 10:13:00,
2013-11-21 05:18:00,41.4,32.7,30.45,North,0,0.0,4.0,71,0.00,,,0.00,meteohub,2013-11-21 10:18:00,
2013-11-21 05:23:00,41.4,32.7,30.45,North,0,0.0,4.0,71,0.00,,,0.00,meteohub,2013-11-21 10:23:00,
2013-11-21 05:28:00,41.4,32.7,30.45,NNE,22,0.0,5.0,71,0.00,,,0.00,meteohub,2013-11-21 10:28:00,
2013-11-21 05:33:00,41.4,32.7,30.45,North,0,3.0,5.0,71,0.00,,,0.00,meteohub,2013-11-21 10:33:00,
2013-11-21 05:38:00,41.4,32.7,30.45,NNE,22,5.0,6.0,71,0.00,,,0.00,meteohub,2013-11-21 10:38:00,
2013-11-21 05:43:00,41.4,32.7,30.45,NNE,22,0.0,6.0,71,0.00,,,0.00,meteohub,2013-11-21 10:43:00,
2013-11-21 05:48:00,41.4,32.7,30.45,NNE,22,0.0,6.0,71,0.00,,,0.00,meteohub,2013-11-21 10:48:00,
2013-11-21 05:53:00,41.4,32.7,30.45,NNE,22,3.0,6.0,71,0.00,,,0.00,meteohub,2013-11-21 10:53:00,
2013-11-21 05:58:00,41.4,32.7,30.45,NNE,22,3.0,6.0,71,0.00,,,0.00,meteohub,2013-11-21 10:58:00,
2013-11-21 06:03:00,41.4,32.7,30.45,ENE,68,0.0,5.0,71,0.00,,,0.00,meteohub,2013-11-21 11:03:00,
2013-11-21 06:08:00,41.5,33.3,30.45,NNE,22,0.0,5.0,72,0.00,,,0.00,meteohub,2013-11-21 11:08:00,
2013-11-21 06:14:00,41.5,33.3,30.45,NE,45,0.0,5.0,72,0.00,,,0.00,meteohub,2013-11-21 11:14:00,
2013-11-21 06:19:00,41.5,32.9,30.45,North,0,3.0,6.0,71,0.00,,,0.00,meteohub,2013-11-21 11:19:00,
2013-11-21 06:24:00,41.5,32.9,30.45,North,0,0.0,6.0,71,0.00,,,0.00,meteohub,2013-11-21 11:24:00,
2013-11-21 06:29:00,41.5,32.9,30.48,NNE,22,3.0,6.0,71,0.00,,,0.00,meteohub,2013-11-21 11:29:00,
2013-11-21 06:34:00,41.5,32.9,30.48,NNE,22,3.0,4.0,71,0.00,,,0.00,meteohub,2013-11-21 11:34:00,
2013-11-21 06:39:00,41.7,33.1,30.48,NNE,22,0.0,4.0,71,0.00,,,0.00,meteohub,2013-11-21 11:39:00,
2013-11-21 06:44:00,41.7,33.1,30.48,NNE,22,0.0,4.0,71,0.00,,,0.00,meteohub,2013-11-21 11:44:00,
2013-11-21 06:49:00,41.7,33.1,30.48,NE,45,2.0,4.0,71,0.00,,,0.00,meteohub,2013-11-21 11:49:00,
2013-11-21 06:54:00,41.7,33.1,30.48,East,90,4.0,4.0,71,0.00,,,0.00,meteohub,2013-11-21 11:54:00,
2013-11-21 06:59:00,41.7,32.7,30.48,NNE,22,3.0,4.0,70,0.00,,,0.00,meteohub,2013-11-21 11:59:00,
2013-11-21 07:04:00,41.7,32.7,30.48,ENE,68,0.0,4.0,70,0.00,,,0.00,meteohub,2013-11-21 12:04:00,
2013-11-21 07:09:00,41.7,32.7,30.48,ENE,68,3.0,4.0,70,0.00,,,0.00,meteohub,2013-11-21 12:09:00,
2013-11-21 07:14:00,41.9,32.9,30.48,NNW,338,0.0,4.0,70,0.00,,,0.00,meteohub,2013-11-21 12:14:00,
2013-11-21 07:19:00,41.9,32.9,30.48,ENE,68,0.0,4.0,70,0.00,,,0.00,meteohub,2013-11-21 12:19:00,
2013-11-21 07:24:00,41.9,32.9,30.48,ENE,68,3.0,4.0,70,0.00,,,0.00,meteohub,2013-11-21 12:24:00,
2013-11-21 07:29:00,41.9,32.9,30.48,NE,45,3.0,4.0,70,0.00,,,0.00,meteohub,2013-11-21 12:29:00,
2013-11-21 07:34:00,41.9,32.5,30.48,NNE,22,4.0,5.0,69,0.00,,,0.00,meteohub,2013-11-21 12:34:00,
2013-11-21 07:39:00,41.9,32.5,30.48,North,0,4.0,5.0,69,0.00,,,0.00,meteohub,2013-11-21 12:39:00,
2013-11-21 07:44:00,41.9,32.5,30.48,ENE,68,2.0,6.0,69,0.00,,,0.00,meteohub,2013-11-21 12:44:00,
2013-11-21 07:49:00,42.1,32.7,30.48,NE,45,2.0,6.0,69,0.00,,,0.00,meteohub,2013-11-21 12:49:00,
2013-11-21 07:54:00,42.1,32.7,30.48,North,0,0.0,5.0,69,0.00,,,0.00,meteohub,2013-11-21 12:54:00,
2013-11-21 07:59:00,42.1,32.7,30.48,North,0,0.0,5.0,69,0.00,,,0.00,meteohub,2013-11-21 12:59:00,
2013-11-21 08:04:00,41.9,32.5,30.48,NNE,22,0.0,5.0,69,0.00,,,0.00,meteohub,2013-11-21 13:04:00,
2013-11-21 08:09:00,42.1,32.7,30.48,ESE,112,3.0,4.0,69,0.00,,,0.00,meteohub,2013-11-21 13:09:00,
2013-11-21 08:14:00,43.0,33.4,30.48,SSW,202,3.0,4.0,69,0.00,,,0.00,meteohub,2013-11-21 13:14:00,
2013-11-21 08:19:00,43.5,33.3,30.48,NE,45,0.0,4.0,67,0.00,,,0.00,meteohub,2013-11-21 13:19:00,
2013-11-21 08:25:00,43.7,33.1,30.48,NNE,22,3.0,4.0,66,0.00,,,0.00,meteohub,2013-11-21 13:25:00,
2013-11-21 08:30:00,43.9,32.9,30.48,ENE,68,4.0,4.0,65,0.00,,,0.00,meteohub,2013-11-21 13:30:00,
2013-11-21 08:35:00,44.2,32.9,30.48,NE,45,3.0,5.0,64,0.00,,,0.00,meteohub,2013-11-21 13:35:00,
2013-11-21 08:40:00,44.4,32.5,30.48,East,90,4.0,5.0,63,0.00,,,0.00,meteohub,2013-11-21 13:40:00,
2013-11-21 08:45:00,44.8,32.5,30.48,WSW,248,3.0,6.0,62,0.00,,,0.00,meteohub,2013-11-21 13:45:00,
2013-11-21 08:50:00,45.0,32.7,30.48,NNE,22,0.0,6.0,62,0.00,,,0.00,meteohub,2013-11-21 13:50:00,
2013-11-21 08:55:00,45.1,32.5,30.48,ENE,68,4.0,6.0,61,0.00,,,0.00,meteohub,2013-11-21 13:55:00,
2013-11-21 09:00:00,45.1,32.5,30.51,ESE,112,2.0,5.0,61,0.00,,,0.00,meteohub,2013-11-21 14:00:00,
2013-11-21 09:05:00,45.3,32.7,30.51,NE,45,0.0,6.0,61,0.00,,,0.00,meteohub,2013-11-21 14:05:00,
2013-11-21 09:10:00,45.5,32.9,30.51,NW,315,3.0,6.0,61,0.00,,,0.00,meteohub,2013-11-21 14:10:00,
2013-11-21 09:15:00,45.5,32.4,30.51,ENE,68,0.0,5.0,60,0.00,,,0.00,meteohub,2013-11-21 14:15:00,
2013-11-21 09:20:00,45.7,32.5,30.51,NNE,22,0.0,4.0,60,0.00,,,0.00,meteohub,2013-11-21 14:20:00,
2013-11-21 09:25:00,45.7,32.5,30.51,NNW,338,2.0,4.0,60,0.00,,,0.00,meteohub,2013-11-21 14:25:00,
2013-11-21 09:30:00,45.7,32.2,30.51,NNW,338,4.0,4.0,59,0.00,,,0.00,meteohub,2013-11-21 14:30:00,
2013-11-21 09:35:00,45.3,32.2,30.51,NNE,22,3.0,6.0,60,0.00,,,0.00,meteohub,2013-11-21 14:35:00,
2013-11-21 09:40:00,45.3,32.2,30.51,NNW,338,2.0,6.0,60,0.00,,,0.00,meteohub,2013-11-21 14:40:00,
2013-11-21 09:45:00,45.9,32.7,30.51,ENE,68,3.0,6.0,60,0.00,,,0.00,meteohub,2013-11-21 14:45:00,
2013-11-21 09:50:00,46.6,33.4,30.51,NE,45,3.0,6.0,60,0.00,,,0.00,meteohub,2013-11-21 14:50:00,
2013-11-21 09:55:00,46.8,33.3,30.51,NNE,22,3.0,6.0,59,0.00,,,0.00,meteohub,2013-11-21 14:55:00,
2013-11-21 10:00:00,47.3,33.3,30.48,NE,45,4.0,5.0,58,0.00,,,0.00,meteohub,2013-11-21 15:00:00,
2013-11-21 10:05:00,47.5,33.1,30.48,ENE,68,0.0,5.0,57,0.00,,,0.00,meteohub,2013-11-21 15:05:00,
2013-11-21 10:10:00,47.5,32.5,30.48,NE,45,3.0,5.0,56,0.00,,,0.00,meteohub,2013-11-21 15:10:00,
2013-11-21 10:15:00,47.8,32.9,30.48,NNW,338,6.0,6.0,56,0.00,,,0.00,meteohub,2013-11-21 15:15:00,
2013-11-21 10:20:00,48.2,32.7,30.48,NNE,22,3.0,7.0,55,0.00,,,0.00,meteohub,2013-11-21 15:20:00,
2013-11-21 10:25:00,48.9,33.4,30.48,ESE,112,0.0,7.0,55,0.00,,,0.00,meteohub,2013-11-21 15:25:00,
2013-11-21 10:30:00,49.8,33.8,30.48,NNE,22,2.0,6.0,54,0.00,,,0.00,meteohub,2013-11-21 15:30:00,
2013-11-21 10:35:00,49.8,32.9,30.48,NE,45,6.0,6.0,52,0.00,,,0.00,meteohub,2013-11-21 15:35:00,
2013-11-21 10:40:00,50.5,34.0,30.48,NNE,22,4.0,6.0,53,0.00,,,0.00,meteohub,2013-11-21 15:40:00,
2013-11-21 10:45:00,50.5,33.1,30.48,ENE,68,4.0,6.0,51,0.00,,,0.00,meteohub,2013-11-21 15:45:00,
2013-11-21 10:50:00,51.3,33.3,30.48,NE,45,4.0,6.0,50,0.00,,,0.00,meteohub,2013-11-21 15:50:00,
2013-11-21 10:55:00,51.8,33.3,30.48,North,0,3.0,4.0,49,0.00,,,0.00,meteohub,2013-11-21 15:55:00,
2013-11-21 11:00:00,52.3,33.8,30.48,ESE,112,0.0,4.0,49,0.00,,,0.00,meteohub,2013-11-21 16:00:00,
2013-11-21 11:05:00,52.5,33.4,30.48,NNW,338,2.0,4.0,48,0.00,,,0.00,meteohub,2013-11-21 16:05:00,
2013-11-21 11:10:00,52.5,33.4,30.48,NNW,338,3.0,5.0,48,0.00,,,0.00,meteohub,2013-11-21 16:10:00,
2013-11-21 11:15:00,52.7,33.1,30.48,NW,315,3.0,7.0,47,0.00,,,0.00,meteohub,2013-11-21 16:15:00,
2013-11-21 11:20:00,53.8,34.0,30.48,ESE,112,3.0,7.0,47,0.00,,,0.00,meteohub,2013-11-21 16:20:00,
2013-11-21 11:25:00,53.8,33.4,30.48,NW,315,4.0,5.0,46,0.00,,,0.00,meteohub,2013-11-21 16:25:00,
2013-11-21 11:30:00,54.7,34.3,30.48,North,0,4.0,7.0,46,0.00,,,0.00,meteohub,2013-11-21 16:30:00,
2013-11-21 11:35:00,54.7,33.8,30.48,NE,45,2.0,7.0,45,0.00,,,0.00,meteohub,2013-11-21 16:35:00,
2013-11-21 11:40:00,55.0,34.7,30.45,North,0,3.0,5.0,46,0.00,,,0.00,meteohub,2013-11-21 16:40:00,
2013-11-21 11:46:00,56.1,35.1,30.45,NE,45,3.0,6.0,45,0.00,,,0.00,meteohub,2013-11-21 16:46:00,
2013-11-21 11:51:00,56.8,34.5,30.45,SE,135,4.0,6.0,43,0.00,,,0.00,meteohub,2013-11-21 16:51:00,
2013-11-21 11:56:00,56.8,34.0,30.45,SSW,202,0.0,6.0,42,0.00,,,0.00,meteohub,2013-11-21 16:56:00,
2013-11-21 12:01:00,57.4,35.1,30.45,NNW,338,3.0,6.0,43,0.00,,,0.00,meteohub,2013-11-21 17:01:00,
2013-11-21 12:06:00,56.8,34.5,30.45,NNW,338,4.0,6.0,43,0.00,,,0.00,meteohub,2013-11-21 17:06:00,
2013-11-21 12:11:00,56.8,34.5,30.45,NNE,22,3.0,5.0,43,0.00,,,0.00,meteohub,2013-11-21 17:11:00,
2013-11-21 12:16:00,57.6,35.2,30.45,SE,135,3.0,5.0,43,0.00,,,0.00,meteohub,2013-11-21 17:16:00,
2013-11-21 12:21:00,57.2,34.9,30.45,SE,135,4.0,4.0,43,0.00,,,0.00,meteohub,2013-11-21 17:21:00,
2013-11-21 12:26:00,57.6,35.8,30.45,ESE,112,3.0,5.0,44,0.00,,,0.00,meteohub,2013-11-21 17:26:00,
2013-11-21 12:31:00,57.9,35.6,30.45,SSE,158,3.0,5.0,43,0.00,,,0.00,meteohub,2013-11-21 17:31:00,
2013-11-21 12:36:00,57.9,35.6,30.45,SE,135,0.0,5.0,43,0.00,,,0.00,meteohub,2013-11-21 17:36:00,
2013-11-21 12:41:00,58.1,35.8,30.42,SE,135,4.0,5.0,43,0.00,,,0.00,meteohub,2013-11-21 17:41:00,
2013-11-21 12:46:00,58.5,36.7,30.42,ENE,68,2.0,5.0,44,0.00,,,0.00,meteohub,2013-11-21 17:46:00,
2013-11-21 12:51:00,58.6,35.6,30.42,SW,225,0.0,5.0,42,0.00,,,0.00,meteohub,2013-11-21 17:51:00,
2013-11-21 12:56:00,58.6,35.1,30.42,SW,225,3.0,4.0,41,0.00,,,0.00,meteohub,2013-11-21 17:56:00,
2013-11-21 13:01:00,59.0,36.0,30.42,SE,135,3.0,4.0,42,0.00,,,0.00,meteohub,2013-11-21 18:01:00,
2013-11-21 13:06:00,58.8,36.3,30.42,SE,135,4.0,4.0,43,0.00,,,0.00,meteohub,2013-11-21 18:06:00,
2013-11-21 13:11:00,59.2,36.1,30.42,South,180,0.0,5.0,42,0.00,,,0.00,meteohub,2013-11-21 18:11:00,
2013-11-21 13:16:00,59.7,36.5,30.42,ENE,68,0.0,5.0,42,0.00,,,0.00,meteohub,2013-11-21 18:16:00,
2013-11-21 13:21:00,59.9,36.1,30.42,ESE,112,3.0,5.0,41,0.00,,,0.00,meteohub,2013-11-21 18:21:00,
2013-11-21 13:26:00,60.3,37.0,30.42,SSE,158,2.0,4.0,42,0.00,,,0.00,meteohub,2013-11-21 18:26:00,
2013-11-21 13:31:00,60.6,36.9,30.42,SE,135,2.0,4.0,41,0.00,,,0.00,meteohub,2013-11-21 18:31:00,
2013-11-21 13:36:00,60.3,36.5,30.42,SE,135,4.0,4.0,41,0.00,,,0.00,meteohub,2013-11-21 18:36:00,
2013-11-21 13:41:00,60.1,36.9,30.42,North,0,0.0,4.0,42,0.00,,,0.00,meteohub,2013-11-21 18:41:00,
2013-11-21 13:46:00,60.6,36.9,30.42,ENE,68,5.0,5.0,41,0.00,,,0.00,meteohub,2013-11-21 18:46:00,
2013-11-21 13:51:00,60.4,37.2,30.42,SE,135,0.0,6.0,42,0.00,,,0.00,meteohub,2013-11-21 18:51:00,
2013-11-21 13:56:00,60.8,36.9,30.39,North,0,0.0,6.0,41,0.00,,,0.00,meteohub,2013-11-21 18:56:00,
2013-11-21 14:01:00,60.6,36.9,30.39,SE,135,6.0,6.0,41,0.00,,,0.00,meteohub,2013-11-21 19:01:00,
2013-11-21 14:06:00,60.4,37.2,30.39,ESE,112,0.0,6.0,42,0.00,,,0.00,meteohub,2013-11-21 19:06:00,
2013-11-21 14:11:00,60.6,37.4,30.39,NE,45,4.0,6.0,42,0.00,,,0.00,meteohub,2013-11-21 19:11:00,
2013-11-21 14:16:00,60.6,36.9,30.39,NE,45,0.0,6.0,41,0.00,,,0.00,meteohub,2013-11-21 19:16:00,
2013-11-21 14:21:00,61.2,37.2,30.39,NNE,22,2.0,5.0,41,0.00,,,0.00,meteohub,2013-11-21 19:21:00,
2013-11-21 14:26:00,61.0,36.5,30.39,NNE,22,2.0,5.0,40,0.00,,,0.00,meteohub,2013-11-21 19:26:00,
2013-11-21 14:31:00,61.0,36.5,30.39,NNW,338,0.0,5.0,40,0.00,,,0.00,meteohub,2013-11-21 19:31:00,
2013-11-21 14:36:00,61.3,37.4,30.39,NNW,338,0.0,5.0,41,0.00,,,0.00,meteohub,2013-11-21 19:36:00,
2013-11-21 14:41:00,61.0,37.0,30.39,NNE,22,0.0,4.0,41,0.00,,,0.00,meteohub,2013-11-21 19:41:00,
2013-11-21 14:46:00,59.9,36.1,30.39,NNW,338,0.0,4.0,41,0.00,,,0.00,meteohub,2013-11-21 19:46:00,
2013-11-21 14:51:00,60.3,37.0,30.39,ENE,68,0.0,4.0,42,0.00,,,0.00,meteohub,2013-11-21 19:51:00,
2013-11-21 14:56:00,59.9,37.9,30.39,ESE,112,3.0,4.0,44,0.00,,,0.00,meteohub,2013-11-21 19:56:00,
2013-11-21 15:02:00,59.7,37.8,30.39,SSE,158,0.0,4.0,44,0.00,,,0.00,meteohub,2013-11-21 20:02:00,
2013-11-21 15:07:00,60.1,38.1,30.39,SE,135,0.0,4.0,44,0.00,,,0.00,meteohub,2013-11-21 20:07:00,
2013-11-21 15:12:00,60.4,38.5,30.39,SE,135,2.0,4.0,44,0.00,,,0.00,meteohub,2013-11-21 20:12:00,
2013-11-21 15:17:00,60.6,38.7,30.39,SE,135,2.0,4.0,44,0.00,,,0.00,meteohub,2013-11-21 20:17:00,
2013-11-21 15:22:00,60.3,38.3,30.39,SE,135,0.0,4.0,44,0.00,,,0.00,meteohub,2013-11-21 20:22:00,
2013-11-21 15:27:00,60.1,38.1,30.39,NNE,22,0.0,4.0,44,0.00,,,0.00,meteohub,2013-11-21 20:27:00,
2013-11-21 15:32:00,60.1,38.1,30.39,NNE,22,0.0,3.0,44,0.00,,,0.00,meteohub,2013-11-21 20:32:00,
2013-11-21 15:37:00,59.7,38.3,30.39,NNW,338,0.0,4.0,45,0.00,,,0.00,meteohub,2013-11-21 20:37:00,
2013-11-21 15:42:00,59.5,37.6,30.39,NNW,338,0.0,4.0,44,0.00,,,0.00,meteohub,2013-11-21 20:42:00,
2013-11-21 15:47:00,59.4,37.9,30.39,NNW,338,3.0,4.0,45,0.00,,,0.00,meteohub,2013-11-21 20:47:00,
2013-11-21 15:52:00,59.2,38.5,30.39,NNW,338,0.0,3.0,46,0.00,,,0.00,meteohub,2013-11-21 20:52:00,
2013-11-21 15:57:00,59.0,38.8,30.39,SE,135,3.0,3.0,47,0.00,,,0.00,meteohub,2013-11-21 20:57:00,
2013-11-21 16:02:00,58.8,39.2,30.39,SE,135,3.0,4.0,48,0.00,,,0.00,meteohub,2013-11-21 21:02:00,
2013-11-21 16:07:00,60.1,39.2,30.39,North,0,0.0,4.0,46,0.00,,,0.00,meteohub,2013-11-21 21:07:00,
2013-11-21 16:12:00,60.6,39.2,30.39,North,0,0.0,4.0,45,0.00,,,0.00,meteohub,2013-11-21 21:12:00,
2013-11-21 16:17:00,61.2,39.0,30.39,North,0,0.0,4.0,44,0.00,,,0.00,meteohub,2013-11-21 21:17:00,
2013-11-21 16:22:00,60.8,38.1,30.39,North,0,0.0,3.0,43,0.00,,,0.00,meteohub,2013-11-21 21:22:00,
2013-11-21 16:27:00,60.8,37.6,30.39,North,0,0.0,3.0,42,0.00,,,0.00,meteohub,2013-11-21 21:27:00,
2013-11-21 16:32:00,59.7,37.8,30.39,North,0,0.0,0.0,44,0.00,,,0.00,meteohub,2013-11-21 21:32:00,
2013-11-21 16:37:00,59.2,38.5,30.39,North,0,0.0,0.0,46,0.00,,,0.00,meteohub,2013-11-21 21:37:00,
2013-11-21 16:42:00,58.1,38.5,30.39,North,0,0.0,0.0,48,0.00,,,0.00,meteohub,2013-11-21 21:42:00,
2013-11-21 16:47:00,57.4,38.8,30.39,North,0,0.0,0.0,50,0.00,,,0.00,meteohub,2013-11-21 21:47:00,
2013-11-21 16:52:00,56.7,39.2,30.39,North,0,0.0,0.0,52,0.00,,,0.00,meteohub,2013-11-21 21:52:00,
2013-11-21 16:57:00,56.1,39.7,30.39,North,0,0.0,0.0,54,0.00,,,0.00,meteohub,2013-11-21 21:57:00,
2013-11-21 17:02:00,55.8,39.9,30.39,North,0,0.0,0.0,55,0.00,,,0.00,meteohub,2013-11-21 22:02:00,
2013-11-21 17:07:00,55.4,40.5,30.39,North,0,0.0,0.0,57,0.00,,,0.00,meteohub,2013-11-21 22:07:00,
2013-11-21 17:12:00,55.4,41.4,30.39,North,0,0.0,0.0,59,0.00,,,0.00,meteohub,2013-11-21 22:12:00,
2013-11-21 17:17:00,55.2,42.1,30.39,North,0,0.0,0.0,61,0.00,,,0.00,meteohub,2013-11-21 22:17:00,
2013-11-21 17:22:00,55.2,42.8,30.39,North,0,0.0,0.0,63,0.00,,,0.00,meteohub,2013-11-21 22:22:00,
2013-11-21 17:27:00,55.0,43.2,30.42,North,0,0.0,0.0,64,0.00,,,0.00,meteohub,2013-11-21 22:27:00,
2013-11-21 17:32:00,55.2,43.3,30.42,North,0,0.0,0.0,64,0.00,,,0.00,meteohub,2013-11-21 22:32:00,
2013-11-21 17:37:00,55.2,43.3,30.42,North,0,0.0,0.0,64,0.00,,,0.00,meteohub,2013-11-21 22:37:00,
2013-11-21 17:42:00,55.4,43.0,30.39,North,0,0.0,0.0,63,0.00,,,0.00,meteohub,2013-11-21 22:42:00,
2013-11-21 17:47:00,55.4,43.0,30.39,North,0,0.0,0.0,63,0.00,,,0.00,meteohub,2013-11-21 22:47:00,
2013-11-21 17:52:00,55.4,42.6,30.39,North,0,0.0,0.0,62,0.00,,,0.00,meteohub,2013-11-21 22:52:00,
2013-11-21 17:57:00,55.2,42.8,30.39,North,0,0.0,0.0,63,0.00,,,0.00,meteohub,2013-11-21 22:57:00,
2013-11-21 18:02:00,55.2,43.3,30.39,North,0,0.0,0.0,64,0.00,,,0.00,meteohub,2013-11-21 23:02:00,
2013-11-21 18:07:00,54.9,43.3,30.39,North,0,0.0,0.0,65,0.00,,,0.00,meteohub,2013-11-21 23:07:00,
2013-11-21 18:12:00,54.5,43.0,30.39,North,0,0.0,0.0,65,0.00,,,0.00,meteohub,2013-11-21 23:12:00,
2013-11-21 18:17:00,54.1,43.0,30.39,North,0,0.0,0.0,66,0.00,,,0.00,meteohub,2013-11-21 23:17:00,
2013-11-21 18:22:00,53.8,43.2,30.39,North,0,0.0,0.0,67,0.00,,,0.00,meteohub,2013-11-21 23:22:00,
2013-11-21 18:27:00,53.4,43.2,30.39,North,0,0.0,0.0,68,0.00,,,0.00,meteohub,2013-11-21 23:27:00,
2013-11-21 18:32:00,53.4,43.5,30.39,North,0,0.0,0.0,69,0.00,,,0.00,meteohub,2013-11-21 23:32:00,
2013-11-21 18:37:00,53.6,43.7,30.39,North,0,2.0,2.0,69,0.00,,,0.00,meteohub,2013-11-21 23:37:00,
2013-11-21 18:42:00,53.4,43.5,30.39,North,0,0.0,3.0,69,0.00,,,0.00,meteohub,2013-11-21 23:42:00,
2013-11-21 18:47:00,53.1,43.2,30.39,North,0,0.0,3.0,69,0.00,,,0.00,meteohub,2013-11-21 23:47:00,
2013-11-21 18:52:00,52.9,43.0,30.39,North,0,0.0,3.0,69,0.00,,,0.00,meteohub,2013-11-21 23:52:00,
2013-11-21 18:57:00,52.3,42.4,30.39,North,0,0.0,0.0,69,0.00,,,0.00,meteohub,2013-11-21 23:57:00,
2013-11-21 19:02:00,51.8,42.3,30.39,North,0,0.0,0.0,70,0.00,,,0.00,meteohub,2013-11-22 00:02:00,
2013-11-21 19:07:00,51.4,41.9,30.39,North,0,0.0,0.0,70,0.00,,,0.00,meteohub,2013-11-22 00:07:00,
2013-11-21 19:12:00,51.1,42.1,30.39,North,0,0.0,0.0,71,0.00,,,0.00,meteohub,2013-11-22 00:12:00,
2013-11-21 19:17:00,50.7,42.1,30.39,North,0,0.0,0.0,72,0.00,,,0.00,meteohub,2013-11-22 00:17:00,
2013-11-21 19:22:00,50.5,42.3,30.39,North,0,0.0,0.0,73,0.00,,,0.00,meteohub,2013-11-22 00:22:00,
2013-11-21 19:27:00,50.4,42.4,30.39,North,0,0.0,0.0,74,0.00,,,0.00,meteohub,2013-11-22 00:27:00,
2013-11-21 19:31:00,50.4,42.8,30.39,North,0,0.0,0.0,75,0.00,,,0.00,meteohub,2013-11-22 00:31:00,
2013-11-21 19:37:00,50.5,43.3,30.39,North,0,0.0,0.0,76,0.00,,,0.00,meteohub,2013-11-22 00:37:00,
2013-11-21 19:42:00,50.7,43.5,30.42,North,0,0.0,0.0,76,0.00,,,0.00,meteohub,2013-11-22 00:42:00,
2013-11-21 19:47:00,50.9,43.9,30.42,North,0,0.0,0.0,77,0.00,,,0.00,meteohub,2013-11-22 00:47:00,
2013-11-21 19:52:00,51.1,44.1,30.42,North,0,0.0,0.0,77,0.00,,,0.00,meteohub,2013-11-22 00:52:00,
2013-11-21 19:57:00,51.1,44.4,30.39,North,0,0.0,0.0,78,0.00,,,0.00,meteohub,2013-11-22 00:57:00,
2013-11-21 20:02:00,51.1,44.4,30.39,North,0,0.0,0.0,78,0.00,,,0.00,meteohub,2013-11-22 01:02:00,
2013-11-21 20:07:00,51.1,44.4,30.39,North,0,0.0,0.0,78,0.00,,,0.00,meteohub,2013-11-22 01:07:00,
2013-11-21 20:12:00,51.4,44.8,30.39,North,0,0.0,0.0,78,0.00,,,0.00,meteohub,2013-11-22 01:12:00,
2013-11-21 20:17:00,51.6,44.6,30.39,North,0,0.0,0.0,77,0.00,,,0.00,meteohub,2013-11-22 01:17:00,
2013-11-21 20:22:00,51.8,44.1,30.39,North,0,0.0,0.0,75,0.00,,,0.00,meteohub,2013-11-22 01:22:00,
2013-11-21 20:27:00,52.0,44.2,30.42,North,0,0.0,0.0,75,0.00,,,0.00,meteohub,2013-11-22 01:27:00,
2013-11-21 20:32:00,51.8,44.1,30.42,North,0,0.0,0.0,75,0.00,,,0.00,meteohub,2013-11-22 01:32:00,
2013-11-21 20:37:00,51.6,43.9,30.42,North,0,0.0,0.0,75,0.00,,,0.00,meteohub,2013-11-22 01:37:00,
2013-11-21 20:42:00,51.4,43.7,30.39,North,0,0.0,0.0,75,0.00,,,0.00,meteohub,2013-11-22 01:42:00,
2013-11-21 20:47:00,51.1,43.5,30.39,North,0,0.0,0.0,75,0.00,,,0.00,meteohub,2013-11-22 01:47:00,
2013-11-21 20:52:00,50.7,43.5,30.39,North,0,0.0,0.0,76,0.00,,,0.00,meteohub,2013-11-22 01:52:00,
2013-11-21 20:57:00,50.4,43.2,30.39,North,0,0.0,0.0,76,0.00,,,0.00,meteohub,2013-11-22 01:57:00,
2013-11-21 21:01:00,50.2,43.3,30.39,North,0,0.0,0.0,77,0.00,,,0.00,meteohub,2013-11-22 02:01:00,
2013-11-21 21:06:00,50.0,43.2,30.39,North,0,0.0,0.0,77,0.00,,,0.00,meteohub,2013-11-22 02:06:00,
2013-11-21 21:08:00,50.0,43.2,30.39,North,0,0.0,0.0,77,0.00,,,0.00,meteohub,2013-11-22 02:08:00,
2013-11-21 21:09:00,50.0,43.2,30.39,North,0,0.0,0.0,77,0.00,,,0.00,meteohub,2013-11-22 02:09:00,
2013-11-21 21:10:00,50.0,43.2,30.39,North,0,0.0,0.0,77,0.00,,,0.00,meteohub,2013-11-22 02:10:00,
2013-11-21 21:15:00,50.0,43.2,30.39,North,0,0.0,0.0,77,0.00,,,0.00,meteohub,2013-11-22 02:15:00,
2013-11-21 21:20:00,50.2,43.3,30.39,North,0,0.0,0.0,77,0.00,,,0.00,meteohub,2013-11-22 02:20:00,
2013-11-21 21:25:00,50.2,43.3,30.39,North,0,0.0,0.0,77,0.00,,,0.00,meteohub,2013-11-22 02:25:00,
2013-11-21 21:30:00,50.4,43.3,30.39,North,0,0.0,0.0,77,0.00,,,0.00,meteohub,2013-11-22 02:30:00,
2013-11-21 21:35:00,50.7,43.5,30.39,North,0,0.0,0.0,76,0.00,,,0.00,meteohub,2013-11-22 02:35:00,
2013-11-21 21:40:00,51.1,43.7,30.39,North,0,0.0,0.0,76,0.00,,,0.00,meteohub,2013-11-22 02:40:00,
2013-11-21 21:45:00,51.3,43.5,30.39,North,0,0.0,0.0,75,0.00,,,0.00,meteohub,2013-11-22 02:45:00,
2013-11-21 21:50:00,51.4,43.5,30.39,North,0,0.0,0.0,74,0.00,,,0.00,meteohub,2013-11-22 02:50:00,
2013-11-21 21:55:00,51.6,43.5,30.39,North,0,0.0,0.0,74,0.00,,,0.00,meteohub,2013-11-22 02:55:00,
2013-11-21 22:00:00,51.8,43.3,30.39,North,0,0.0,0.0,73,0.00,,,0.00,meteohub,2013-11-22 03:00:00,
2013-11-21 22:05:00,52.0,43.2,30.39,North,0,0.0,0.0,72,0.00,,,0.00,meteohub,2013-11-22 03:05:00,
2013-11-21 22:10:00,52.2,43.0,30.39,North,0,0.0,0.0,71,0.00,,,0.00,meteohub,2013-11-22 03:10:00,
2013-11-21 22:15:00,52.2,43.0,30.39,North,0,0.0,0.0,71,0.00,,,0.00,meteohub,2013-11-22 03:15:00,
2013-11-21 22:20:00,52.2,43.0,30.39,North,0,0.0,0.0,71,0.00,,,0.00,meteohub,2013-11-22 03:20:00,
2013-11-21 22:25:00,52.0,42.8,30.39,North,0,0.0,0.0,71,0.00,,,0.00,meteohub,2013-11-22 03:25:00,
2013-11-21 22:30:00,51.6,42.4,30.39,North,0,0.0,0.0,71,0.00,,,0.00,meteohub,2013-11-22 03:30:00,
2013-11-21 22:35:00,51.4,42.8,30.39,North,0,0.0,0.0,72,0.00,,,0.00,meteohub,2013-11-22 03:35:00,
2013-11-21 22:40:00,51.1,42.8,30.39,North,0,0.0,0.0,73,0.00,,,0.00,meteohub,2013-11-22 03:40:00,
2013-11-21 22:45:00,50.9,42.6,30.39,North,0,0.0,0.0,73,0.00,,,0.00,meteohub,2013-11-22 03:45:00,
2013-11-21 22:50:00,50.7,42.8,30.39,North,0,0.0,0.0,74,0.00,,,0.00,meteohub,2013-11-22 03:50:00,
2013-11-21 22:55:00,50.4,42.8,30.39,North,0,0.0,0.0,75,0.00,,,0.00,meteohub,2013-11-22 03:55:00,
2013-11-21 23:00:00,50.0,42.4,30.39,North,0,0.0,0.0,75,0.00,,,0.00,meteohub,2013-11-22 04:00:00,
2013-11-21 23:06:00,49.8,42.6,30.39,North,0,0.0,0.0,76,0.00,,,0.00,meteohub,2013-11-22 04:06:00,
2013-11-21 23:10:00,49.5,42.8,30.39,North,0,0.0,0.0,78,0.00,,,0.00,meteohub,2013-11-22 04:10:00,
2013-11-21 23:16:00,49.3,43.3,30.39,North,0,0.0,0.0,80,0.00,,,0.00,meteohub,2013-11-22 04:16:00,
2013-11-21 23:21:00,49.1,43.5,30.39,North,0,0.0,0.0,81,0.00,,,0.00,meteohub,2013-11-22 04:21:00,
2013-11-21 23:26:00,48.9,43.7,30.39,North,0,0.0,0.0,82,0.00,,,0.00,meteohub,2013-11-22 04:26:00,
2013-11-21 23:31:00,48.9,44.2,30.39,North,0,2.0,3.0,84,0.00,,,0.00,meteohub,2013-11-22 04:31:00,
2013-11-21 23:36:00,48.7,44.4,30.39,North,0,0.0,3.0,85,0.00,,,0.00,meteohub,2013-11-22 04:36:00,
2013-11-21 23:41:00,48.6,44.2,30.39,North,0,0.0,3.0,85,0.00,,,0.00,meteohub,2013-11-22 04:41:00,
2013-11-21 23:46:00,48.4,44.4,30.39,North,0,0.0,3.0,86,0.00,,,0.00,meteohub,2013-11-22 04:46:00,
2013-11-21 23:51:00,48.6,44.6,30.39,North,0,0.0,0.0,86,0.00,,,0.00,meteohub,2013-11-22 04:51:00,
2013-11-21 23:56:00,48.4,44.8,30.39,North,0,0.0,0.0,87,0.00,,,0.00,meteohub,2013-11-22 04:56:00,